Location: Unspecified
(0.0000°N, 0.0000°E)
Time: 19:00:56
(UTC+00:00)

Vanguard 2 Rocket - Pass Details

Date: 24 January 2020
Orbit: 554 x 3327 km, 32.9° (Epoch: 20 February)

Event Time Altitude Azimuth Distance (km) Brightness Sun altitude
Rises 20:10:20 0° 223° (SW) 6,724 12.3 -27.8°
Reaches altitude 10° 20:20:00 10° 197° (SSW) 4,964 11.1 -30.0°
Maximum altitude 20:24:18 12° 178° (S) 4,396 10.6 -31.0°
Drops below altitude 10° 20:28:01 10° 159° (SSE) 4,159 10.2 -31.9°
Enters shadow 20:31:44 - 139° (SE) 4,244 10.1 -32.7°
Sets 20:33:58 0° 128° (SE) 4,462 - -33.2°
